[Date Prev][Date Next][Thread Prev][Thread Next][Date Index][Thread Index]

[jamsat-news:1194] jas2info #163



========================   最新情報   ==============================

        Last updated :Thu.15-Dec.-1999 19:00 (JST) #163

====================================================================
   
     衛星情報 FOシリーズの軌道要素、テレメトリ、QSOの状況等を
   まとめてみました.
         
 ■ 軌道要素1:「jamsat−keps:945」より 
              SB KEPS @ AMSAT  $ORB99344.N
       2Line Orbital Elements 99344.AMSAT

 HR AMSAT ORBITAL ELEMENTS FOR AMATEUR SATELLITES IN NASA FORMAT
 FROM WA5QGD FORT WORTH,TX December 10, 1999
 SEND SUBSCRIBE/UNSUBSCRIBE TO majordomo@amsat.org ONLY
 BID: ORB99344.N

 DECODE 2-LINE ELSETS WITH THE FOLLOWING KEY:
 1 AAAAAU 00  0  0 BBBBB.BBBBBBBB  .CCCCCCCC  00000-0  00000-0 0  DDDZ
 2 AAAAA EEE.EEEE FFF.FFFF GGGGGGG HHH.HHHH III.IIII JJ.JJJJJJJJKKKKKZ
 KEY: A-CATALOGNUM B-EPOCHTIME C-DECAY D-ELSETNUM E-INCLINATION F-RAAN
 G-ECCENTRICITY H-ARGPERIGEE I-MNANOM J-MNMOTION K-ORBITNUM Z-CHECKSUM
 TO ALL RADIO AMATEURS BT
 
  FO-29
  1 24278U 96046B   99342.84570779  .00000028  00000-0  65334-4 0 02978
  2 24278 098.5806 270.8045 0351344 002.1924 358.0661 13.52691199163426 
 
 ■ 軌道要素2:「jamsat−keps:946」より
                         
         SB KEPS @ AMSAT  $ORB99344.O
         rbital Elements  99344.OSCAR

 HR AMSAT ORBITAL ELEMENTS FOR OSCAR SATELLITES
 FROM WA5QGD FORT WORTH,TX December 10, 1999
 SEND SUBSCRIBE/UNSUBSCRIBE TO majordomo@amsat.org ONLY
 BID: ORB99344.O
 TO ALL RADIO AMATEURS BT

  Satellite: FO-29
 Catalog number: 24278
 Epoch time:      99342.84570779
 Element set:       0297
 Inclination:      098.5806 deg
 RA of node:       270.8045 deg
 Eccentricity:    0.0351344
 Arg of perigee:   002.1924 deg
 Mean anomaly:     358.0661 deg
 Mean motion:   13.52691199 rev/day
 Decay rate:        2.8e-07 rev/day^2
 Epoch rev:           16342
 Checksum:              338
 
-------------------  FO-29(JAS-2) QSOに関する情報  ------------------------

[jamsat-bb:4854]において金沢のJH0TOG/9の吉田氏がGPを使いFO-29にアクセスされた話題を
投稿されていましたので転載させて頂きました.

 こんにちわ 金沢の吉田です。GPでFO−29にアクセスしてました。
まず、衛星が見えてきた時に、パスバンドのざわざわが聞こえてくる
ことですよね....都会では、ノイズやらFM局やらでわかるのかな
?ここ金沢でも結構 FM局やら湯沸かし器のノイズなどがあります
が、あきらかに衛星が見えてきたときのざわざわはわかります。
このざわざわの中には、もちろんどこの国かわかりませんが、
外国語のFM局の信号やら、JAのFM移動局の信号が聞こえます。
それから、自分のダウンリンクがわかること...
それが31以上なら、聞こえるはずです。(耳のいい局なら)
今、私が使用しているGP ダイヤモンドのX5000 長さが1.8m
のアンテナです。これでもFO−29の可視時間の2/3くらいは
自分の帰り信号を聞くことができます。(41−51で)
(先ほどは昼食時でだれも応答ありませんでした...)
とても弱いですが、周波数をきちんと維持できる状態で聞こえています。
これからアナログ低軌道衛星に出てこられる方は、そんな 強力でなくて
も、だれか受信してくれますので、どうぞ衛星にでてきてください。
まずは、自分の帰りの信号をその受信周波数に維持するように、アップ
リンクの周波数を調整する練習をしてください。
(これ、とても大切なことです)そうしていると、強すぎる方は、だれかにワニ
さんになってるよって、言われますから...安心してください。
PS.ノイズがすごいので受信アンプはずしていますが、私の帰り信号以上の
レベルであれば、了解できますので...

Katsumi Yoshida(JH0TOG/9)
Mailto :jh0tog@d1.dion.ne.jp
URL: http://www.fsinet.or.jp/~jh0yqp/

-------------------  FO-29(JAS-2)のテレメトリに関する情報  ------------------------ 

  [jamsat-bb:4878]にてJE9PEL/1の脇田 美根夫氏がFO-29のディジタルテレメトリの
 送信電力の解析を投稿されていましたので転載させて頂きました.

---------------------------------
衛星FO-29 デジタル送信電力の解析 (by fo29tlm5.exe)
--------------------------------

受信日時

 ( データ 1 )  Dec.14 1999  11:35:41JST
 ( データ 2 )  Dec.14 1999  11:35:44JST
 ( データ 3 )  Dec.14 1999  11:35:50JST
 ( データ 4 )  Dec.14 1999  11:35:52JST
 ( データ 5 )  Dec.14 1999  11:35:56JST
 ( データ 6 )  Dec.14 1999  11:36:13JST
 ( データ 7 )  Dec.14 1999  11:36:16JST
 ( データ 8 )  Dec.14 1999  11:36:22JST
 ( データ 9 )  Dec.14 1999  11:36:36JST
 ( データ10 )  Dec.14 1999  11:36:38JST
 ( データ11 )  Dec.14 1999  11:37:17JST
 ( データ12 )  Dec.14 1999  11:37:26JST
 ( データ13 )  Dec.14 1999  11:37:41JST

デジタル送信電力 (# 50mW)

 ( データ 1 )  1338.5[mW] : ###########################
 ( データ 2 )  1761.4[mW] : ###################################
 ( データ 3 )  1338.5[mW] : ###########################
 ( データ 4 )  1338.5[mW] : ###########################
 ( データ 5 )  1761.4[mW] : ###################################
 ( データ 6 )  1635.9[mW] : #################################
 ( データ 7 )  1472.0[mW] : #############################
 ( データ 8 )   587.4[mW] : ############
 ( データ 9 )  1338.5[mW] : ###########################
 ( データ10 )  1324.5[mW] : ##########################
 ( データ11 )  1761.4[mW] : ###################################
 ( データ12 )   666.7[mW] : #############
 ( データ13 )  1179.2[mW] : ########################

 1.0      *              *                             *           1.0
                              *
 0.9                                                               0.9
                                   *
 0.8                                                               0.8
     *         *    *                        *    *
 0.7                                                             * 0.7

 0.6                                                               0.6

 0.5                                                               0.5

 0.4                                                        *      0.4

 0.3                                    *                          0.3

 0.2                                                               0.2

 0.1                                                               0.1
     +----+----+----+----+----+----+----+----+----+----+----+----+
     1    2    3    4    5    6    7    8    9   10   11   12   13

               縦軸:最大値に対する比率、 横軸:データ数

 ----------------------------------------------
 Name : JE9PEL/1 脇田
 Mail : je9pel@jamsat.or.jp
 URL  : http://www.ne.jp/asahi/hamradio/je9pel/
 QTH  : Yokohama, Japan
 Date : Dec 14, 1999
 ----------------------------------------------
 ------------------------   FO-20(JAS-1b) -----------------------
-----------------------    FO-20(JAS-1b)道要素   -------------------------------
 
 ■ 軌道要素1 :出典はFO-29「ふじ3号」に同じ.
  
  FO-20
 1 20480U 90013C   99342.97950904 -.00000009  00000-0  43573-4 0 02020
 2 20480 099.0259 144.4535 0541279 128.3896 236.7111 12.83260711460755
 
 ■ 軌道要素2 :出典はFO-29「ふじ3号」に同じ.
               
  Satellite: FO-20
 Catalog number: 20480
 Epoch time:      99342.97950904
 Element set:    0202
 Inclination:      099.0259 deg
 RA of node:       144.4535 deg
 Eccentricity:    0.0541279
 Arg of perigee:   128.3896 deg
 Mean anomaly:     236.7111 deg
 Mean motion:   12.83260711 rev/day
 Decay rate:       -9.0e-08 rev/day^2
 Epoch rev:           46075
 Checksum:              311

 ==================================================================================

 5)JARL のホームページに運用予定が記載されていましたのでご紹介します.
       ( http://www.jarl.or.jp/Japanese/3_Fuji/uy.htm )

        ■ ふじ3号/FOー29/JAS-2 ■  
   
     *** 運用予定について ***     
    
  12月01日 〜 12月12日     アナログ系運用
  12月13日 〜 12月19日     デジタル系1200bpsメールボック運用
  12月20日 〜 01月11日     アナログ系運用
 
 ※なお,運用予定は都合により変更することがありますのでご了承願います。

 照会先 : lab@jarl.or.jp

 最新の情報はテレホンサービス(:03−3942−1000)をお聞きください。
   
 以後の運用に付きましては12月下旬にお知らせいたします。

--------------------------------------------------------------------------------

         ■ ふじ2号/FO−20/JAS-1b ■      
            
          「ふじ2号」 現況                                                                                  
             
   JAS-1b/FO-20(ふじ2号)の不具合発生について
    JAS-1b(ふじ2号)のCWテレメトリ信号に,1997年10月12日12時
 (JST)の日本上空通過時,3桁の数字が繰り返されるはずが3個の長音の
  繰り返しとなっているという異常が発見されました。この不具合は次の通過時
  からは回復していましたが13日15時20分の通過時に再び観測されました。
  衛星のアナログ系中継モード動作は異常が無く,正常時のテレメトリ内容からは
  衛星の動作に異常は認められません。従って,直ちに衛星のミッションに影響す
  ることは無いと予想されますので,当面はアナログ系中継モードを継続します。
  衛星は既に打ち上げてから7年8ヶ月を経ておりますので,今後は監視を強化す
  る予定です。アマチュア各位のレポートをお待ちします.   
  
  以上  http://www.jarl.or.jp/Japanese/3_Fuji/fuji.htm
                                           
   =============   JAS-2 (ふじ3号)と現在までの情報   ===========
  
  A.電話によるふじ3号の運用情報
      社団法人日本アマチュア連盟によるサービス
           TEL .   03− 3942 − 1000
  B.アマチュア無線FAXサービス
      JARLによるふじ3号の軌道情報(オービットカレンダー)
         FAX No.  03− 3233 −0055
  C.WWWブラウザで情報を簡単に見れる人のためにJAS−2
     ふじ3号の衛星としての運用されるまでの名前)の概要、打ち上げ
     までの状況、運用中における状況を説明したホームページを紹介し
     ておきます.
     社団法人日本アマチュア無線連盟(JARL)のホームページ

          http://www.jarl.or.jp/Japanese/3_Fuji
 
     宇宙開発事業団(NASDA)ホームページ 
          http://www.nasda.go.jp/
         打上げ衛星 :地球観測プラットフォーム技術衛星(ADEOS) 
                       アマチュア衛星3号(JAS-2)
          http://yyy.tksc.nasda.go.jp/Home/Press/Press-j/jas-2_j.html        

  D.JAMSATによる軌道情報の活用
        JAMSATのホームページまたはjamsat−kepsの軌道要素より
      衛星の軌道情報を得る.
     JAMSATホームページ
               URL    http://www.jamsat.or.jp
       上記ホームページでは各地で行われるアマチュア通信衛星に関する
      ミューティングのお知らせや世界のアマチュア衛星に関する情報が
      満載されています.
   
 =========================================================================
       JAMSATのメンバーのご協力によりJH6MME(高山 秀造)が
    執筆・編集を担当しております.ご指摘の意見、疑問やこのようにしたら
    というアイデアがありましたら小さなことでもかまいませんので気軽に下
    記アドレスまでご連絡ください.jamsat−newsからjas2
    infoへの転載をJH4PHW局坂井さんに担当して頂いております.
                    E-mail : jh6mme@jamsat.or.jp : jh4phw@jamsat.or.jp
 ===============================   END  ===============================